"Pseudo-MPEC" for C0GNLJ5

Created 2023 Mar 22 5:22:06 UT using Find_Orb

Click here for an explanation of pseudo-MPECs

 
 Astrometry: 
     C0GNLJ5  C2023 03 11\!'J%6(tXUc5,0yuQg;d'$h+:.(!t8@UElDt$S7m9!l4SZO=;-_FV00
     C0GNLJ5  C2023 03 11K/.UM(mG7/G]-ua`2UygG4@[=7w%wwPQ,^,4@T52=\oKWWeC2?13V00
     C0GNLJ5* C2023 03 13S+oJClOtCZK*r1rm?-%]jtb!Q'y=FdQSoF$ll-fiAks:Wk-vyf3CV00
     C0GNLJ5  C2023 03 13`Ox8WQU#;`1e,i1RvxBrC;fTaM+`9r]yH[7YgG6(-GGn6Yg1B_.8V00
     C0GNLJ5  C2023 03 13KcSxH9k@Pjhe\!R)85j_\8Pom=5V5'[RZ3M$@#nciPdA3V0XpmJFV00
     C0GNLJ5  C2023 03 13b==C-sXh.dIAPE8.m!wx@r1v]ClPnlle/5r\Gaj1deO:0hHXCyVcV00
     C0GNLJ5 KC2023 03 13.35133 10 24 05.12 +47 10 32.9    ~3DA7 22.5 RoNEOCP291
     C0GNLJ5 KC2023 03 13.36814 10 24 01.12 +47 11 57.8    ~3DA7       oNEOCP291
     C0GNLJ5 KC2023 03 13.38509 10 23 57.06 +47 13 24.8    ~3DA7       oNEOCP291
     C0GNLJ5 mC2023 03 14LA:/e`93S+xAKSh2Cvc)6sK9+ola2)L'Hg@5@g6G8i5JgiFPM7#xV00
     C0GNLJ5 mC2023 03 14*/GvJZoS`PUMqjGwX8xJ'AstrometryguH1ux^f6pe^m5rCXlx`=V00
     C0GNLJ5 mC2023 03 14C-nUredacted;El%'ZTOkP()*?3I#Z^uP'.BZn`WU.fU!k\5ePmcV00
     C0GNLJ5 mC2023 03 14FQ(3`G9[wtC@.7ZeGhQCw8XwW8'K!MV^;WDbJY`x#Z-::La\$=U/V00
     C0GNLJ5 KC2023 03 158,gQg8,:HjUY4)nX(clickK8ie,;'hsxHN.;4uF!gRp5w%oewR3UH21
     C0GNLJ5 KC2023 03 15Z^mI$S?+B8]DAk_U@+W-8'w5,FT*xh_3L-\*`!i\nM[5@j9!F(w-H21
     C0GNLJ5 KC2023 03 155CasB)2UVsk`ZGPp;W+POLth,vi$Xfem0L@,0S;@L,`-01HARqBMH21
     C0GNLJ5 KC2023 03 15_N#N,[oq)YxIe.VN)f.itsTv:qOe9VKh3StHF+[DU,eZZnGB8u;lH21
     C0GNLJ5 1C2023 03 15.91250 10 13 40.91 +50 44 31.1    ~3FMb 21.7 VXNEOCP033
     C0GNLJ5 1C2023 03 15.91534 10 13 40.17 +50 44 44.9    ~3FMb 21.9 VXNEOCP033
     C0GNLJ5 1C2023 03 15.91817 10 13 39.38 +50 44 58.7    ~3FMb 21.6 VXNEOCP033
     C0GNLJ5 mC2023 03 17q0cu#0EC.sF0?Ql=,FIL']@(2#uYN_vO[S_5x]CL)TkZcAfm'JgcV00
     C0GNLJ5 mC2023 03 17*TfY3;?/DTc]i;@3g#AY^uvYubWfm@JGa*Z#DW-]HX3j5.#s)y,YV00
     C0GNLJ5 mC2023 03 17;26(V,'=6sm`MJG1KIC89X!,^o8=1%S9_dyf[6\/]B\.CG3Gj%`#V00
     C0GNLJ5 mC2023 03 17ZW/?L!\]ZjP?.P`i@BRW?5?6Rc[2$^l5G1aHy7l)V3pC-mhereveV00
     C0GNLJ5 mC2023 03 18fe*(!7F6#JNo_u[R]SiO7yOJpr2cHQOg[1CLWYO'.y@]4ufor5qNV00
     C0GNLJ5 mC2023 03 18XFeXOj(!VEJ-NkB_4o=nxxVws9en)\va(s1,U3b]IN(k4=`+e9]AV00
     C0GNLJ5 mC2023 03 18jV4V$=8!Yu=,,#b??bVhk_YYVtdA3G#XP36HL7'!.g-eO'*l]r]vV00
     C0GNLJ5 mC2023 03 18,RZMm[iJm@^*hduIe^6LI@STfk#A2sNlS!9hk\eV@St;V_yFeI@?V00
     C0GNLJ5 mC2023 03 19W`d7c+$\YJi[d2\nk84x2)TK)T6,O/=5sTy%X58]YsGky]9Du'BaV00
     C0GNLJ5 mC2023 03 190Pfm_S42pI_%Hd78#tqPub*XUN-\KnFUZ::7mN#RbCT'4l*/c4*%V00
     C0GNLJ5 mC2023 03 19cZGppL?='S1vDX$GvVds1k.#O=Ac!\[]i+/.Hj;3f:lkah!K2pJjV00
     C0GNLJ5 mC2023 03 19EA1/B1EaF(*,k8T[-BG4mcVHhr[_B%*=6m:!8Uexplanationt_.V00
     C0GNLJ5 1C2023 03 22.02605 09 43 57.01 +58 21 46.8    ~3M1M 21.3 VXNEOCP033
     C0GNLJ5 1C2023 03 22.02929 09 43 55.90 +58 22 00.1    ~3M1M 21.0 VXNEOCP033
     C0GNLJ5 1C2023 03 22.03252 09 43 54.86 +58 22 12.9    ~3M1M 21.2 VXNEOCP033

Station data:
(033) Karl Schwarzschild Observatory, Tautenburg  (N50.980137 E11.711240)
   Germany.  Observers S. Melnikov, C. Hoegner, B. Stecklum. Measurer B.
   Stecklum. 1.34-m f/3 Schmidt + CCD.
(291) LPL/Spacewatch II  (N31.961669 W111.599905)  US/Arizona.  Observers J.
   V. Scotti, R. S. McMillan. 1.8-m f/2.7 reflector + CCD.
(H21) Astronomical Research Observatory, Westfield  (N39.483054 W87.968270)
   US/Illinois.  Observer R. Holmes. Measurers S. Foglia, L. Buzzi, T.
   Linder, R. Holmes. 0.76-m f/3.0 astrograph + CCD0.81-m f/4.0 astrograph +
   CCD0.61-m f/4.5 astrograph + CCD0.40-m f/5.32 astrograph + CCD.
(V00) Kitt Peak-Bok  (N31.963125 W111.600190)  US/Arizona.  Observers T. A.
   Pruyne, B. M. Africano, E. J. Christensen, G. A. Farneth, D. C. Fuls, A.
   R. Gibbs, A. D. Grauer, H. Gröller, J. A. Johnson, R. A. Kowalski, S. M.
   Larson, G. J. Leonard, D. Rankin, R. L. Seaman, F. C. Shelly, K. W.
   Wierzchoś. 2.25-m reflector + CCD.

Orbital elements:  C0GNLJ5
   Perihelion 2023 Jun 5.84302 +/- 0.228 TT = 20:13:56 (JD 2460101.34302)
Epoch 2023 Mar 22.0 TT = JDT 2460025.5   Earth MOID: 0.0151   Ma: 0.0665
M 341.78315489 +/- 1.2              (J2000 ecliptic)             AutoNEOCP
n   0.24019145 +/- 0.0152           Peri.  113.53564 +/- 1.0
a   2.56309287 +/- 0.108            Node   152.49356 +/- 0.13
e   0.6978178 +/- 0.00928           Incl.   55.77747 +/- 0.9
P   4.10                   H 21.03  G  0.15   U  9.9
q 0.77452083 +/- 0.00894    Q 4.35166491 +/- 0.207
From 35 observations 2023 Mar. 11-22; mean residual 0".20
Residuals in arcseconds: 
230311 V00  .04-  .05+    230314 V00  .14-  .03-    230318 V00  .09+  .15-    
230311 V00  .03+  .13-    230315 H21  .10-  .40+    230318 V00  .00   .14-    
230313 V00  .05-  .14-    230315 H21  .09-  .31+    230318 V00  .20-  .41-    
230313 V00  .12-  .29-    230315 H21  .22-  .13+    230318 V00  .25+  .10-    
230313 V00  .07+  .33-    230315 H21  .05+  .01+    230319 V00  .11+  .08-    
230313 V00  .02-  .29-    230315 033  .12+  .20+    230319 V00  .17+  .05-    
230313 291  .36+  .64+    230315 033  .21+  .14+    230319 V00  .05-  .17-    
230313 291  .31+  .22-    230315 033  .20-  .12+    230319 V00  .16-  .06+    
230313 291  .08-  .43+    230317 V00  .02-  .15-    230322 033  .12+  .06-    
230314 V00  .15-  .19-    230317 V00  .02+  .09-    230322 033  .17-  .24+    
230314 V00  .14-  .33-    230317 V00  .01+  .14-    230322 033  .06+  .08+    
230314 V00  .19-  .30-    230317 V00  .01+  .19-    

Ephemerides (geocentric):
Date (UTC) HH   RA             Dec           delta  r     elong  mag " sig PA
---- --------  ------------   ------------  ------ ------ -----  --- --------
2023 03 22 05  09 42 58.173   +58 34 04.52  .59873 1.3611 114.9 22.3 .276 116
2023 03 22 06  09 42 44.454   +58 36 52.12  .59891 1.3606 114.8 22.3 .279 115
2023 03 22 07  09 42 30.715   +58 39 39.44  .59908 1.3602 114.7 22.3 .282 115
2023 03 22 08  09 42 16.956   +58 42 26.51  .59926 1.3598 114.6 22.3 .284 114
2023 03 22 09  09 42 03.176   +58 45 13.30  .59943 1.3593 114.5 22.3 .287 113
2023 03 22 10  09 41 49.375   +58 47 59.83  .59961 1.3589 114.4 22.3 .290 112
2023 03 22 11  09 41 35.554   +58 50 46.10  .59978 1.3585 114.4 22.3 .293 112
2023 03 22 12  09 41 21.713   +58 53 32.10  .59996 1.3580 114.3 22.3 .296 111
2023 03 22 13  09 41 07.851   +58 56 17.83  .60014 1.3576 114.2 22.3 .299 110
2023 03 22 14  09 40 53.969   +58 59 03.29  .60032 1.3572 114.1 22.3 .302 109
2023 03 22 15  09 40 40.066   +59 01 48.49  .60050 1.3567 114.0 22.3 .305 109
2023 03 22 16  09 40 26.142   +59 04 33.42  .60068 1.3563 114.0 22.3 .309 108
2023 03 22 17  09 40 12.198   +59 07 18.08  .60086 1.3558 113.9 22.3 .312 107
2023 03 22 18  09 39 58.234   +59 10 02.48  .60104 1.3554 113.8 22.3 .315 106
2023 03 22 19  09 39 44.249   +59 12 46.60  .60122 1.3550 113.7 22.3 .318 106
2023 03 22 20  09 39 30.244   +59 15 30.46  .60140 1.3545 113.6 22.3 .322 105
2023 03 22 21  09 39 16.218   +59 18 14.06  .60158 1.3541 113.5 22.3 .325 104
2023 03 22 22  09 39 02.171   +59 20 57.38  .60176 1.3537 113.5 22.3 .328 103
2023 03 22 23  09 38 48.104   +59 23 40.43  .60195 1.3532 113.4 22.3 .332 103
2023 03 23 00  09 38 34.017   +59 26 23.22  .60213 1.3528 113.3 22.3 .335 102
2023 03 23 01  09 38 19.909   +59 29 05.73  .60232 1.3524 113.2 22.3 .339 101
2023 03 23 02  09 38 05.780   +59 31 47.98  .60250 1.3519 113.1 22.3 .343 100
2023 03 23 03  09 37 51.631   +59 34 29.96  .60269 1.3515 113.0 22.3 .346 100
2023 03 23 04  09 37 37.461   +59 37 11.67  .60287 1.3511 113.0 22.3 .350  99
2023 03 23 05  09 37 23.271   +59 39 53.11  .60306 1.3506 112.9 22.3 .354  98
2023 03 23 06  09 37 09.060   +59 42 34.28  .60325 1.3502 112.8 22.3 .358  97
2023 03 23 07  09 36 54.829   +59 45 15.18  .60343 1.3497 112.7 22.3 .361  97
2023 03 23 08  09 36 40.577   +59 47 55.81  .60362 1.3493 112.6 22.3 .365  96
2023 03 23 09  09 36 26.305   +59 50 36.17  .60381 1.3489 112.6 22.3 .369  95
2023 03 23 10  09 36 12.012   +59 53 16.26  .60400 1.3484 112.5 22.3 .373  94
2023 03 23 11  09 35 57.698   +59 55 56.08  .60419 1.3480 112.4 22.3 .378  94
2023 03 23 12  09 35 43.364   +59 58 35.63  .60438 1.3476 112.3 22.3 .382  93
2023 03 23 13  09 35 29.010   +60 01 14.91  .60457 1.3471 112.2 22.3 .386  92
2023 03 23 14  09 35 14.634   +60 03 53.92  .60476 1.3467 112.2 22.3 .390  91
2023 03 23 15  09 35 00.239   +60 06 32.66  .60495 1.3463 112.1 22.3 .395  91
2023 03 23 16  09 34 45.822   +60 09 11.12  .60514 1.3458 112.0 22.3 .399  90
2023 03 23 17  09 34 31.386   +60 11 49.32  .60534 1.3454 111.9 22.3 .403  89
2023 03 23 18  09 34 16.928   +60 14 27.24  .60553 1.3450 111.8 22.3 .408  88
2023 03 23 19  09 34 02.450   +60 17 04.89  .60572 1.3445 111.8 22.3 .413  87
2023 03 23 20  09 33 47.951   +60 19 42.28  .60592 1.3441 111.7 22.3 .417  87
2023 03 23 21  09 33 33.432   +60 22 19.39  .60611 1.3436 111.6 22.3 .422  86
2023 03 23 22  09 33 18.893   +60 24 56.22  .60631 1.3432 111.5 22.3 .427  85
2023 03 23 23  09 33 04.332   +60 27 32.79  .60650 1.3428 111.4 22.3 .432  84
2023 03 24 00  09 32 49.752   +60 30 09.08  .60670 1.3423 111.3 22.3 .437  84
2023 03 24 01  09 32 35.150   +60 32 45.11  .60690 1.3419 111.3 22.3 .442  83
2023 03 24 02  09 32 20.528   +60 35 20.86  .60709 1.3415 111.2 22.3 .447  82
2023 03 24 03  09 32 05.886   +60 37 56.33  .60729 1.3410 111.1 22.3 .452  81
2023 03 24 04  09 31 51.222   +60 40 31.54  .60749 1.3406 111.0 22.3 .458  81